Time,TemperatureF,DewpointF,PressureIn,WindDirection,WindDirectionDegrees,WindSpeedMPH,WindSpeedGustMPH,Humidity,HourlyPrecipIn,Conditions,Clouds,dailyrainin,SoftwareType,DateUTC
2013-02-28 00:00:00,33.3,22.1,29.41,West,276,4.7,6.5,63,0.00,,,0.00,WSDL version 426,2013-02-28 06:00:00,
2013-02-28 00:05:00,33.3,22.3,29.41,WNW,288,4.6,6.3,64,0.00,,,0.00,WSDL version 426,2013-02-28 06:05:00,
2013-02-28 00:10:00,33.2,22.2,29.41,WNW,293,4.8,6.3,64,0.00,,,0.00,WSDL version 426,2013-02-28 06:10:00,
2013-02-28 00:15:00,33.1,22.2,29.41,WNW,283,4.4,6.7,64,0.00,,,0.00,WSDL version 426,2013-02-28 06:15:00,
2013-02-28 00:20:00,33.1,22.4,29.41,West,275,4.7,6.7,65,0.00,,,0.00,WSDL version 426,2013-02-28 06:20:00,
2013-02-28 00:25:00,33.0,22.5,29.41,West,276,4.2,6.3,65,0.00,,,0.00,WSDL version 426,2013-02-28 06:25:00,
2013-02-28 00:30:00,32.9,22.6,29.41,WNW,288,4.4,6.3,66,0.00,,,0.00,WSDL version 426,2013-02-28 06:30:00,
2013-02-28 00:35:00,33.0,22.9,29.41,WNW,295,5.5,8.1,66,0.00,,,0.00,WSDL version 426,2013-02-28 06:35:00,
2013-02-28 00:40:00,33.1,23.0,29.41,West,280,4.5,8.1,66,0.00,,,0.00,WSDL version 426,2013-02-28 06:40:00,
2013-02-28 00:45:00,32.9,22.8,29.41,WNW,295,4.1,7.4,66,0.00,,,0.00,WSDL version 426,2013-02-28 06:45:00,
2013-02-28 00:50:00,32.9,22.8,29.41,West,280,4.1,6.5,66,0.00,,,0.00,WSDL version 426,2013-02-28 06:50:00,
2013-02-28 00:55:00,32.9,22.8,29.41,WNW,295,4.5,6.5,67,0.00,,,0.00,WSDL version 426,2013-02-28 06:55:00,
2013-02-28 01:00:00,32.8,22.9,29.41,WNW,284,3.8,6.3,66,0.00,,,0.00,WSDL version 426,2013-02-28 07:00:00,
2013-02-28 01:05:00,32.7,22.7,29.41,WNW,293,4.4,6.7,67,0.00,,,0.00,WSDL version 426,2013-02-28 07:05:00,
2013-02-28 01:10:00,32.7,23.0,29.41,WNW,284,4.4,6.7,67,0.00,,,0.00,WSDL version 426,2013-02-28 07:10:00,
2013-02-28 01:15:00,32.7,23.3,29.41,WNW,285,4.3,6.0,68,0.00,,,0.00,WSDL version 426,2013-02-28 07:15:00,
2013-02-28 01:20:00,32.7,23.3,29.41,WNW,293,4.3,6.0,68,0.00,,,0.00,WSDL version 426,2013-02-28 07:20:00,
2013-02-28 01:25:00,32.7,23.3,29.41,West,280,3.8,6.5,68,0.00,,,0.00,WSDL version 426,2013-02-28 07:25:00,
2013-02-28 01:30:00,32.5,23.2,29.41,WNW,284,3.9,6.5,68,0.00,,,0.00,WSDL version 426,2013-02-28 07:30:00,
2013-02-28 01:35:00,32.5,23.5,29.41,WNW,295,4.3,6.5,69,0.00,,,0.00,WSDL version 426,2013-02-28 07:35:00,
2013-02-28 01:40:00,32.5,23.5,29.41,WNW,295,4.1,6.3,69,0.00,,,0.00,WSDL version 426,2013-02-28 07:40:00,
2013-02-28 01:45:00,32.5,23.5,29.41,WNW,298,4.3,6.3,69,0.00,,,0.00,WSDL version 426,2013-02-28 07:45:00,
2013-02-28 01:50:00,32.4,23.3,29.41,WNW,290,3.7,6.0,69,0.00,,,0.00,WSDL version 426,2013-02-28 07:50:00,
2013-02-28 01:55:00,32.2,23.2,29.41,West,278,3.9,6.5,70,0.00,,,0.00,WSDL version 426,2013-02-28 07:55:00,
2013-02-28 02:00:00,32.2,23.5,29.41,WNW,288,4.8,6.5,70,0.00,,,0.00,WSDL version 426,2013-02-28 08:00:00,
2013-02-28 02:05:00,32.2,23.6,29.41,WNW,285,5.0,7.4,71,0.00,,,0.00,WSDL version 426,2013-02-28 08:05:00,
2013-02-28 02:10:00,32.0,24.5,29.41,West,273,4.4,7.4,71,0.00,,,0.00,WSDL version 426,2013-02-28 08:10:00,
2013-02-28 02:15:00,32.0,24.6,29.41,WNW,288,3.6,6.0,71,0.00,,,0.00,WSDL version 426,2013-02-28 08:15:00,
2013-02-28 02:20:00,31.8,24.4,29.41,West,281,4.7,6.5,71,0.00,,,0.00,WSDL version 426,2013-02-28 08:20:00,
2013-02-28 02:25:00,31.8,24.6,29.41,WNW,288,4.1,6.5,71,0.00,,,0.00,WSDL version 426,2013-02-28 08:25:00,
2013-02-28 02:30:00,31.7,24.6,29.44,West,276,4.2,6.0,72,0.00,,,0.00,WSDL version 426,2013-02-28 08:30:00,
2013-02-28 02:35:00,31.6,24.6,29.44,West,268,3.9,6.0,72,0.00,,,0.00,WSDL version 426,2013-02-28 08:35:00,
2013-02-28 02:40:00,31.6,24.7,29.44,WNW,283,4.1,6.3,72,0.00,,,0.00,WSDL version 426,2013-02-28 08:40:00,
2013-02-28 02:45:00,31.5,24.5,29.41,West,278,4.2,6.3,73,0.00,,,0.00,WSDL version 426,2013-02-28 08:45:00,
2013-02-28 02:50:00,31.5,24.6,29.41,West,278,4.5,5.6,73,0.00,,,0.00,WSDL version 426,2013-02-28 08:50:00,
2013-02-28 02:55:00,31.6,24.9,29.41,WNW,287,4.4,7.4,73,0.00,,,0.00,WSDL version 426,2013-02-28 08:55:00,
2013-02-28 03:00:00,31.6,24.9,29.41,WNW,290,4.7,7.4,73,0.00,,,0.00,WSDL version 426,2013-02-28 09:00:00,
2013-02-28 03:05:00,31.6,24.9,29.41,West,281,5.1,7.4,73,0.00,,,0.00,WSDL version 426,2013-02-28 09:05:00,
2013-02-28 03:10:00,31.6,24.8,29.41,WNW,293,4.7,7.4,73,0.00,,,0.00,WSDL version 426,2013-02-28 09:10:00,
2013-02-28 03:15:00,31.5,24.7,29.41,West,278,4.9,6.5,73,0.00,,,0.00,WSDL version 426,2013-02-28 09:15:00,
2013-02-28 03:20:00,31.4,24.6,29.41,WNW,290,4.3,6.7,73,0.00,,,0.00,WSDL version 426,2013-02-28 09:20:00,
2013-02-28 03:25:00,31.3,24.7,29.41,WNW,290,4.7,7.8,74,0.00,,,0.00,WSDL version 426,2013-02-28 09:25:00,
2013-02-28 03:30:00,31.2,24.4,29.41,West,273,4.6,7.8,73,0.00,,,0.00,WSDL version 426,2013-02-28 09:30:00,
2013-02-28 03:35:00,31.1,24.6,29.41,West,280,4.6,6.5,74,0.00,,,0.00,WSDL version 426,2013-02-28 09:35:00,
2013-02-28 03:40:00,31.1,24.7,29.41,West,273,4.7,7.2,75,0.00,,,0.00,WSDL version 426,2013-02-28 09:40:00,
2013-02-28 03:45:00,31.1,24.9,29.41,West,278,4.8,7.2,75,0.00,,,0.00,WSDL version 426,2013-02-28 09:45:00,
2013-02-28 03:50:00,31.0,24.8,29.41,West,273,5.1,6.5,75,0.00,,,0.00,WSDL version 426,2013-02-28 09:50:00,
2013-02-28 03:55:00,30.9,24.7,29.41,WNW,284,5.5,7.2,75,0.00,,,0.00,WSDL version 426,2013-02-28 09:55:00,
2013-02-28 04:00:00,30.9,24.7,29.41,West,275,5.1,7.2,75,0.00,,,0.00,WSDL version 426,2013-02-28 10:00:00,
2013-02-28 04:05:00,30.7,24.6,29.41,WNW,290,5.4,7.2,76,0.00,,,0.00,WSDL version 426,2013-02-28 10:05:00,
2013-02-28 04:10:00,30.7,24.8,29.41,WNW,283,5.1,7.4,76,0.00,,,0.00,WSDL version 426,2013-02-28 10:10:00,
2013-02-28 04:15:00,30.6,24.7,29.41,West,281,4.4,7.8,76,0.00,,,0.00,WSDL version 426,2013-02-28 10:15:00,
2013-02-28 04:20:00,30.5,24.6,29.41,West,278,4.4,7.8,76,0.00,,,0.00,WSDL version 426,2013-02-28 10:20:00,
2013-02-28 04:25:00,30.4,24.5,29.41,WNW,288,4.7,6.5,76,0.00,,,0.00,WSDL version 426,2013-02-28 10:25:00,
2013-02-28 04:30:00,30.2,24.6,29.44,West,276,4.6,6.5,77,0.00,,,0.00,WSDL version 426,2013-02-28 10:30:00,
2013-02-28 04:35:00,30.2,24.6,29.44,WNW,290,5.0,8.1,78,0.00,,,0.00,WSDL version 426,2013-02-28 10:35:00,
2013-02-28 04:40:00,30.2,24.9,29.44,West,270,4.7,8.1,78,0.00,,,0.00,WSDL version 426,2013-02-28 10:40:00,
2013-02-28 04:45:00,30.1,24.8,29.44,West,270,5.0,6.5,78,0.00,,,0.00,WSDL version 426,2013-02-28 10:45:00,
2013-02-28 04:50:00,30.1,24.8,29.44,West,278,4.5,7.2,78,0.00,,,0.00,WSDL version 426,2013-02-28 10:50:00,
2013-02-28 04:55:00,30.1,24.8,29.44,West,280,4.8,7.2,78,0.00,,,0.00,WSDL version 426,2013-02-28 10:55:00,
2013-02-28 05:00:00,30.1,24.7,29.47,West,276,4.3,6.3,78,0.00,,,0.00,WSDL version 426,2013-02-28 11:00:00,
2013-02-28 05:05:00,30.0,24.7,29.47,WNW,283,4.2,6.3,78,0.00,,,0.00,WSDL version 426,2013-02-28 11:05:00,
2013-02-28 05:10:00,30.0,24.7,29.47,West,280,4.9,6.3,78,0.00,,,0.00,WSDL version 426,2013-02-28 11:10:00,
2013-02-28 05:15:00,29.8,24.5,29.47,West,278,4.4,6.3,78,0.00,,,0.00,WSDL version 426,2013-02-28 11:15:00,
2013-02-28 05:20:00,29.8,24.5,29.47,West,268,4.3,6.5,78,0.00,,,0.00,WSDL version 426,2013-02-28 11:20:00,
2013-02-28 05:25:00,29.7,24.3,29.47,WNW,284,4.3,6.5,78,0.00,,,0.00,WSDL version 426,2013-02-28 11:25:00,
2013-02-28 05:30:00,29.6,24.3,29.44,WNW,285,4.3,6.0,78,0.00,,,0.00,WSDL version 426,2013-02-28 11:30:00,
2013-02-28 05:35:00,29.5,24.3,29.44,WNW,285,4.8,7.6,79,0.00,,,0.00,WSDL version 426,2013-02-28 11:35:00,
2013-02-28 05:40:00,29.5,24.4,29.44,West,281,4.4,7.6,79,0.00,,,0.00,WSDL version 426,2013-02-28 11:40:00,
2013-02-28 05:45:00,29.4,24.4,29.44,West,276,4.9,6.3,79,0.00,,,0.00,WSDL version 426,2013-02-28 11:45:00,
2013-02-28 05:50:00,29.3,24.3,29.44,West,273,4.4,6.5,79,0.00,,,0.00,WSDL version 426,2013-02-28 11:50:00,
2013-02-28 05:55:00,29.3,24.4,29.44,West,270,4.5,6.5,80,0.00,,,0.00,WSDL version 426,2013-02-28 11:55:00,
2013-02-28 06:00:00,29.2,24.4,29.47,West,276,4.4,6.0,80,0.00,,,0.00,WSDL version 426,2013-02-28 12:00:00,
2013-02-28 06:05:00,29.1,24.3,29.47,West,280,4.4,6.0,80,0.00,,,0.00,WSDL version 426,2013-02-28 12:05:00,
2013-02-28 06:10:00,29.1,24.3,29.47,West,275,4.5,6.3,80,0.00,,,0.00,WSDL version 426,2013-02-28 12:10:00,
2013-02-28 06:16:00,28.9,24.2,29.47,WNW,285,4.7,6.3,80,0.00,,,0.00,WSDL version 426,2013-02-28 12:16:00,
2013-02-28 06:21:00,28.9,24.2,29.47,West,278,4.4,6.3,80,0.00,,,0.00,WSDL version 426,2013-02-28 12:21:00,
2013-02-28 06:26:00,28.9,24.2,29.47,West,276,3.7,5.8,80,0.00,,,0.00,WSDL version 426,2013-02-28 12:26:00,
2013-02-28 06:31:00,28.8,24.0,29.47,West,281,4.2,5.8,80,0.00,,,0.00,WSDL version 426,2013-02-28 12:31:00,
2013-02-28 06:36:00,28.8,24.0,29.47,West,281,4.4,5.8,80,0.00,,,0.00,WSDL version 426,2013-02-28 12:36:00,
2013-02-28 06:41:00,28.8,24.0,29.47,West,273,4.7,6.5,80,0.00,,,0.00,WSDL version 426,2013-02-28 12:41:00,
2013-02-28 06:46:00,28.8,24.0,29.47,West,276,4.0,6.5,80,0.00,,,0.00,WSDL version 426,2013-02-28 12:46:00,
2013-02-28 06:51:00,28.8,24.3,29.47,West,275,4.7,6.3,81,0.00,,,0.00,WSDL version 426,2013-02-28 12:51:00,
2013-02-28 06:57:00,28.9,24.5,29.47,West,270,5.2,6.5,81,0.00,,,0.00,WSDL version 426,2013-02-28 12:57:00,
2013-02-28 07:02:00,29.0,24.5,29.47,West,273,5.1,6.5,81,0.00,,,0.00,WSDL version 426,2013-02-28 13:02:00,
2013-02-28 07:07:00,29.1,24.6,29.47,West,273,5.0,6.3,81,0.00,,,0.00,WSDL version 426,2013-02-28 13:07:00,
2013-02-28 07:12:00,29.2,24.7,29.47,West,275,5.1,7.8,81,0.00,,,0.00,WSDL version 426,2013-02-28 13:12:00,
2013-02-28 07:17:00,29.3,24.8,29.47,WNW,287,5.1,7.8,80,0.00,,,0.00,WSDL version 426,2013-02-28 13:17:00,
2013-02-28 07:22:00,29.4,24.7,29.47,West,281,4.8,6.5,80,0.00,,,0.00,WSDL version 426,2013-02-28 13:22:00,
2013-02-28 07:27:00,29.5,24.7,29.47,WNW,293,4.0,6.5,80,0.00,,,0.00,WSDL version 426,2013-02-28 13:27:00,
2013-02-28 07:32:00,29.6,24.8,29.47,WNW,293,4.0,6.5,80,0.00,,,0.00,WSDL version 426,2013-02-28 13:32:00,
2013-02-28 07:37:00,29.8,25.0,29.47,WNW,298,5.0,6.5,80,0.00,,,0.00,WSDL version 426,2013-02-28 13:37:00,
2013-02-28 07:42:00,30.1,25.3,29.47,WNW,295,4.7,6.5,80,0.00,,,0.00,WSDL version 426,2013-02-28 13:42:00,
2013-02-28 07:47:00,30.3,25.4,29.47,WNW,284,6.0,8.1,79,0.00,,,0.00,WSDL version 426,2013-02-28 13:47:00,
2013-02-28 07:52:00,30.7,25.5,29.47,WNW,288,6.9,9.8,78,0.00,,,0.00,WSDL version 426,2013-02-28 13:52:00,
2013-02-28 07:57:00,31.0,25.7,29.47,West,276,4.7,9.8,78,0.00,,,0.00,WSDL version 426,2013-02-28 13:57:00,
2013-02-28 08:02:00,31.4,25.8,29.47,WNW,288,5.9,8.5,77,0.00,,,0.00,WSDL version 426,2013-02-28 14:02:00,
2013-02-28 08:07:00,31.7,26.1,29.47,WNW,290,4.5,8.5,77,0.00,,,0.00,WSDL version 426,2013-02-28 14:07:00,
2013-02-28 08:12:00,32.1,25.8,29.47,WNW,298,6.2,10.1,76,0.00,,,0.00,WSDL version 426,2013-02-28 14:12:00,
2013-02-28 08:17:00,32.4,25.2,29.47,NW,304,7.2,10.3,74,0.00,,,0.00,WSDL version 426,2013-02-28 14:17:00,
2013-02-28 08:22:00,32.6,25.2,29.47,NNW,328,5.4,10.3,74,0.00,,,0.00,WSDL version 426,2013-02-28 14:22:00,
2013-02-28 08:27:00,33.0,25.2,29.47,WNW,301,6.9,10.3,72,0.00,,,0.00,WSDL version 426,2013-02-28 14:27:00,
2013-02-28 08:32:00,33.3,25.0,29.47,WNW,290,6.9,10.3,71,0.00,,,0.00,WSDL version 426,2013-02-28 14:32:00,
2013-02-28 08:37:00,33.7,25.0,29.47,NW,315,7.3,10.3,70,0.00,,,0.00,WSDL version 426,2013-02-28 14:37:00,
2013-02-28 08:42:00,34.0,24.7,29.47,WNW,303,6.8,10.3,68,0.00,,,0.00,WSDL version 426,2013-02-28 14:42:00,
2013-02-28 08:47:00,34.4,25.1,29.47,NW,315,7.0,8.7,68,0.00,,,0.00,WSDL version 426,2013-02-28 14:47:00,
2013-02-28 08:52:00,34.8,24.9,29.47,NW,315,7.7,12.3,65,0.00,,,0.00,WSDL version 426,2013-02-28 14:52:00,
2013-02-28 08:57:00,35.0,24.2,29.47,NW,325,6.8,12.3,64,0.00,,,0.00,WSDL version 426,2013-02-28 14:57:00,
2013-02-28 09:02:00,35.3,23.9,29.47,NW,312,10.3,13.0,62,0.00,,,0.00,WSDL version 426,2013-02-28 15:02:00,
2013-02-28 09:07:00,35.6,23.8,29.47,NW,323,7.4,13.0,62,0.00,,,0.00,WSDL version 426,2013-02-28 15:07:00,
2013-02-28 09:12:00,35.9,24.0,29.47,NNW,330,7.9,11.0,62,0.00,,,0.00,WSDL version 426,2013-02-28 15:12:00,
2013-02-28 09:17:00,36.4,24.4,29.47,NNW,340,7.7,9.8,61,0.00,,,0.00,WSDL version 426,2013-02-28 15:17:00,
2013-02-28 09:22:00,37.0,24.8,29.47,NW,326,7.5,9.8,61,0.00,,,0.00,WSDL version 426,2013-02-28 15:22:00,
2013-02-28 09:27:00,37.3,23.3,29.47,NNW,340,11.7,16.8,55,0.00,,,0.00,WSDL version 426,2013-02-28 15:27:00,
2013-02-28 09:32:00,37.6,23.1,29.47,North,353,8.8,16.8,56,0.00,,,0.00,WSDL version 426,2013-02-28 15:32:00,
2013-02-28 09:37:00,38.0,23.4,29.47,NNW,338,10.5,15.2,55,0.00,,,0.00,WSDL version 426,2013-02-28 15:37:00,
2013-02-28 09:43:00,38.3,23.2,29.47,NNW,343,10.4,15.2,54,0.00,,,0.00,WSDL version 426,2013-02-28 15:43:00,
2013-02-28 09:48:00,38.7,23.5,29.47,NNW,344,9.0,14.8,54,0.00,,,0.00,WSDL version 426,2013-02-28 15:48:00,
2013-02-28 09:53:00,39.2,23.7,29.47,NNW,343,9.6,13.2,53,0.00,,,0.00,WSDL version 426,2013-02-28 15:53:00,
2013-02-28 09:58:00,39.7,23.7,29.47,North,352,10.0,12.8,52,0.00,,,0.00,WSDL version 426,2013-02-28 15:58:00,
2013-02-28 10:03:00,40.0,23.4,29.47,NNW,344,10.5,15.4,51,0.00,,,0.00,WSDL version 426,2013-02-28 16:03:00,
2013-02-28 10:08:00,40.5,23.9,29.47,NNW,343,9.2,15.4,50,0.00,,,0.00,WSDL version 426,2013-02-28 16:08:00,
2013-02-28 10:13:00,40.7,23.5,29.47,North,354,10.2,15.4,50,0.00,,,0.00,WSDL version 426,2013-02-28 16:13:00,
2013-02-28 10:18:00,41.1,23.7,29.47,NNW,333,9.7,15.4,49,0.00,,,0.00,WSDL version 426,2013-02-28 16:18:00,
2013-02-28 10:23:00,41.2,23.2,29.47,NW,325,9.5,15.2,49,0.00,,,0.00,WSDL version 426,2013-02-28 16:23:00,
2013-02-28 10:28:00,41.4,23.1,29.47,NW,313,10.0,14.8,47,0.00,,,0.00,WSDL version 426,2013-02-28 16:28:00,
2013-02-28 10:34:00,41.8,23.2,29.47,NW,325,10.1,16.6,47,0.00,,,0.00,WSDL version 426,2013-02-28 16:34:00,
2013-02-28 10:40:00,42.2,23.5,29.47,NNW,340,8.2,16.6,48,0.00,,,0.00,WSDL version 426,2013-02-28 16:40:00,
2013-02-28 10:45:00,42.6,23.9,29.47,NNW,343,9.0,12.8,47,0.00,,,0.00,WSDL version 426,2013-02-28 16:45:00,
2013-02-28 10:50:00,42.9,23.6,29.47,NNW,328,10.2,14.1,45,0.00,,,0.00,WSDL version 426,2013-02-28 16:50:00,
2013-02-28 10:55:00,42.8,22.8,29.47,WNW,298,7.0,14.1,45,0.00,,,0.00,WSDL version 426,2013-02-28 16:55:00,
2013-02-28 11:00:00,42.8,22.9,29.47,NW,312,9.3,14.8,44,0.00,,,0.00,WSDL version 426,2013-02-28 17:00:00,
2013-02-28 11:05:00,42.8,22.6,29.47,WNW,298,9.8,14.8,44,0.00,,,0.00,WSDL version 426,2013-02-28 17:05:00,
2013-02-28 11:10:00,42.6,22.4,29.47,NW,305,11.0,14.8,45,0.00,,,0.00,WSDL version 426,2013-02-28 17:10:00,
2013-02-28 11:15:00,42.7,22.5,29.47,WNW,285,9.1,14.8,44,0.00,,,0.00,WSDL version 426,2013-02-28 17:15:00,
2013-02-28 11:20:00,43.5,22.8,29.47,WNW,284,9.3,19.5,43,0.00,,,0.00,WSDL version 426,2013-02-28 17:20:00,
2013-02-28 11:25:00,43.8,23.1,29.47,WNW,295,11.7,19.5,43,0.00,,,0.00,WSDL version 426,2013-02-28 17:25:00,
2013-02-28 11:30:00,43.8,22.7,29.47,WNW,298,9.7,17.0,43,0.00,,,0.00,WSDL version 426,2013-02-28 17:30:00,
2013-02-28 11:35:00,43.9,22.5,29.47,WNW,290,12.5,17.0,42,0.00,,,0.00,WSDL version 426,2013-02-28 17:35:00,
2013-02-28 11:41:00,44.0,22.7,29.47,WNW,301,8.6,15.4,43,0.00,,,0.00,WSDL version 426,2013-02-28 17:41:00,
2013-02-28 11:46:00,44.3,22.6,29.47,WNW,300,9.4,15.7,42,0.00,,,0.00,WSDL version 426,2013-02-28 17:46:00,
2013-02-28 11:51:00,44.5,22.6,29.47,NW,323,13.4,17.4,42,0.00,,,0.00,WSDL version 426,2013-02-28 17:51:00,
2013-02-28 11:56:00,44.3,22.7,29.47,WNW,283,8.7,17.4,42,0.00,,,0.00,WSDL version 426,2013-02-28 17:56:00,
2013-02-28 12:01:00,44.9,22.7,29.47,NW,312,10.6,17.2,41,0.00,,,0.00,WSDL version 426,2013-02-28 18:01:00,
2013-02-28 12:07:00,45.2,22.9,29.47,WNW,300,12.4,17.7,41,0.00,,,0.00,WSDL version 426,2013-02-28 18:07:00,
2013-02-28 12:12:00,45.5,23.0,29.47,NW,312,8.5,17.7,41,0.00,,,0.00,WSDL version 426,2013-02-28 18:12:00,
2013-02-28 12:17:00,45.5,22.7,29.47,NW,325,12.2,15.4,40,0.00,,,0.00,WSDL version 426,2013-02-28 18:17:00,
2013-02-28 12:22:00,45.6,22.7,29.47,WNW,287,9.5,15.4,40,0.00,,,0.00,WSDL version 426,2013-02-28 18:22:00,
2013-02-28 12:27:00,46.0,23.0,29.47,NW,310,12.1,14.1,40,0.00,,,0.00,WSDL version 426,2013-02-28 18:27:00,
2013-02-28 12:32:00,46.0,23.0,29.47,WNW,287,9.1,15.2,40,0.00,,,0.00,WSDL version 426,2013-02-28 18:32:00,
2013-02-28 12:37:00,46.2,23.2,29.47,NNW,328,10.9,15.4,40,0.00,,,0.00,WSDL version 426,2013-02-28 18:37:00,
2013-02-28 12:42:00,46.5,23.2,29.47,West,278,9.9,15.4,39,0.00,,,0.00,WSDL version 426,2013-02-28 18:42:00,
2013-02-28 12:47:00,47.0,23.4,29.47,NW,309,11.0,14.5,39,0.00,,,0.00,WSDL version 426,2013-02-28 18:47:00,
2013-02-28 12:53:00,47.3,23.6,29.47,WNW,293,9.0,15.2,39,-99.99,,,-99.99,WSDL version 426,2013-02-28 18:53:00,
2013-02-28 12:58:00,47.5,23.3,29.44,NW,312,11.9,17.4,38,-99.99,,,-99.99,WSDL version 426,2013-02-28 18:58:00,
2013-02-28 13:03:00,47.4,23.2,29.44,NW,308,7.0,17.4,39,-99.99,,,-99.99,WSDL version 426,2013-02-28 19:03:00,
2013-02-28 13:08:00,47.8,23.5,29.44,NW,307,9.0,14.1,38,-99.99,,,-99.99,WSDL version 426,2013-02-28 19:08:00,
2013-02-28 13:14:00,47.7,23.4,29.44,NW,318,5.6,14.5,38,-99.99,,,-99.99,WSDL version 426,2013-02-28 19:14:00,
2013-02-28 13:19:00,48.3,23.8,29.44,WNW,290,9.3,13.9,38,-99.99,,,-99.99,WSDL version 426,2013-02-28 19:19:00,
2013-02-28 13:24:00,48.7,24.2,29.44,NW,323,11.2,13.4,38,-99.99,,,-99.99,WSDL version 426,2013-02-28 19:24:00,
2013-02-28 13:29:00,48.5,23.4,29.44,West,273,11.1,14.8,37,-99.99,,,-99.99,WSDL version 426,2013-02-28 19:29:00,
2013-02-28 13:34:00,48.5,23.4,29.44,WNW,288,10.1,14.8,37,-99.99,,,-99.99,WSDL version 426,2013-02-28 19:34:00,
2013-02-28 13:39:00,48.8,23.7,29.44,WNW,295,10.4,14.8,37,-99.99,,,-99.99,WSDL version 426,2013-02-28 19:39:00,
2013-02-28 13:45:00,49.3,24.1,29.44,NW,309,11.1,17.0,37,-99.99,,,-99.99,WSDL version 426,2013-02-28 19:45:00,
2013-02-28 13:50:00,49.6,24.4,29.44,NW,318,9.4,17.0,37,-99.99,,,-99.99,WSDL version 426,2013-02-28 19:50:00,
2013-02-28 13:55:00,49.3,24.2,29.44,NW,310,10.0,15.7,37,-99.99,,,-99.99,WSDL version 426,2013-02-28 19:55:00,
2013-02-28 14:00:00,49.3,24.2,29.44,NW,323,9.9,16.6,37,-99.99,,,-99.99,WSDL version 426,2013-02-28 20:00:00,
2013-02-28 14:05:00,49.2,24.0,29.44,WNW,303,9.7,17.0,37,-99.99,,,-99.99,WSDL version 426,2013-02-28 20:05:00,
2013-02-28 14:10:00,49.4,24.2,29.44,WNW,283,9.8,17.0,37,-99.99,,,-99.99,WSDL version 426,2013-02-28 20:10:00,
2013-02-28 14:15:00,49.7,24.5,29.44,NW,315,10.7,18.6,37,-99.99,,,-99.99,WSDL version 426,2013-02-28 20:15:00,
2013-02-28 14:20:00,50.0,24.5,29.44,NW,320,12.3,18.6,37,-99.99,,,-99.99,WSDL version 426,2013-02-28 20:20:00,
2013-02-28 14:25:00,50.3,24.5,29.44,NNW,332,11.4,18.1,36,-99.99,,,-99.99,WSDL version 426,2013-02-28 20:25:00,
2013-02-28 14:30:00,50.6,24.6,29.44,NNW,333,9.0,15.4,36,-99.99,,,-99.99,WSDL version 426,2013-02-28 20:30:00,
2013-02-28 14:35:00,50.6,24.6,29.44,NW,318,10.3,17.7,36,-99.99,,,-99.99,WSDL version 426,2013-02-28 20:35:00,
2013-02-28 14:40:00,50.6,24.7,29.44,NW,307,10.6,19.5,36,-99.99,,,-99.99,WSDL version 426,2013-02-28 20:40:00,
2013-02-28 14:45:00,51.3,24.7,29.44,West,275,11.8,19.5,35,-99.99,,,-99.99,WSDL version 426,2013-02-28 20:45:00,
2013-02-28 14:50:00,51.4,25.2,29.44,NW,315,10.0,16.1,36,-99.99,,,-99.99,WSDL version 426,2013-02-28 20:50:00,
2013-02-28 14:55:00,52.1,25.3,29.44,NW,318,8.6,15.4,34,-99.99,,,-99.99,WSDL version 426,2013-02-28 20:55:00,
2013-02-28 15:00:00,52.5,25.3,29.44,NNW,335,11.2,13.2,34,-99.99,,,-99.99,WSDL version 426,2013-02-28 21:00:00,
2013-02-28 15:05:00,52.6,24.5,29.44,NW,304,7.7,14.1,33,-99.99,,,-99.99,WSDL version 426,2013-02-28 21:05:00,
2013-02-28 15:10:00,53.1,25.5,29.44,NNW,340,10.7,15.2,34,-99.99,,,-99.99,WSDL version 426,2013-02-28 21:10:00,
2013-02-28 15:15:00,53.6,25.7,29.44,NW,308,8.4,15.2,33,-99.99,,,-99.99,WSDL version 426,2013-02-28 21:15:00,
2013-02-28 15:20:00,54.1,25.8,29.44,NNW,332,6.8,12.8,33,-99.99,,,-99.99,WSDL version 426,2013-02-28 21:20:00,
2013-02-28 15:25:00,55.2,26.9,29.44,NNW,332,9.5,13.4,33,-99.99,,,-99.99,WSDL version 426,2013-02-28 21:25:00,
2013-02-28 15:30:00,55.5,26.5,29.44,North,350,10.6,13.4,33,-99.99,,,-99.99,WSDL version 426,2013-02-28 21:30:00,
2013-02-28 15:35:00,56.5,27.0,29.44,NNW,340,11.0,13.2,32,-99.99,,,-99.99,WSDL version 426,2013-02-28 21:35:00,
2013-02-28 15:40:00,55.0,25.2,29.44,NNW,338,10.0,13.2,32,-99.99,,,-99.99,WSDL version 426,2013-02-28 21:40:00,
2013-02-28 15:45:00,54.3,25.1,29.44,North,360,7.9,13.0,32,-99.99,,,-99.99,WSDL version 426,2013-02-28 21:45:00,
2013-02-28 15:50:00,53.9,25.1,29.44,NNW,343,8.3,13.0,33,-99.99,,,-99.99,WSDL version 426,2013-02-28 21:50:00,
2013-02-28 15:55:00,52.7,24.4,29.44,NNW,343,9.3,12.3,33,-99.99,,,-99.99,WSDL version 426,2013-02-28 21:55:00,
2013-02-28 16:00:00,51.4,24.4,29.44,North,360,7.6,11.9,35,0.00,,,0.00,WSDL version 426,2013-02-28 22:00:00,
2013-02-28 16:05:00,51.2,25.0,29.44,North,357,8.7,12.3,36,0.00,,,0.00,WSDL version 426,2013-02-28 22:05:00,
2013-02-28 16:10:00,50.8,24.9,29.44,NNW,346,7.5,13.0,36,0.00,,,0.00,WSDL version 426,2013-02-28 22:10:00,
2013-02-28 16:15:00,51.4,25.4,29.44,North,358,7.8,13.0,36,0.00,,,0.00,WSDL version 426,2013-02-28 22:15:00,
2013-02-28 16:20:00,50.5,24.6,29.44,NNW,344,9.8,13.2,36,0.00,,,0.00,WSDL version 426,2013-02-28 22:20:00,
2013-02-28 16:25:00,49.8,24.3,29.44,North,5,8.0,13.2,37,0.00,,,0.00,WSDL version 426,2013-02-28 22:25:00,
2013-02-28 16:30:00,49.0,23.9,29.44,NNE,17,8.8,12.1,37,0.00,,,0.00,WSDL version 426,2013-02-28 22:30:00,
2013-02-28 16:35:00,48.7,23.9,29.44,North,10,7.3,12.1,38,-99.99,,,-99.99,WSDL version 426,2013-02-28 22:35:00,
2013-02-28 16:40:00,48.9,24.4,29.44,NNW,348,7.1,12.5,38,-99.99,,,-99.99,WSDL version 426,2013-02-28 22:40:00,
2013-02-28 16:45:00,48.5,24.1,29.44,North,357,8.1,12.5,38,-99.99,,,-99.99,WSDL version 426,2013-02-28 22:45:00,
2013-02-28 16:50:00,48.6,24.1,29.44,NNW,345,9.3,14.1,38,-99.99,,,-99.99,WSDL version 426,2013-02-28 22:50:00,
2013-02-28 16:55:00,48.3,23.9,29.44,NNW,340,9.7,14.3,38,0.00,,,0.00,WSDL version 426,2013-02-28 22:55:00,
2013-02-28 17:00:00,48.8,24.3,29.44,North,358,6.2,14.3,38,0.00,,,0.00,WSDL version 426,2013-02-28 23:00:00,
2013-02-28 17:05:00,49.0,24.5,29.44,North,5,7.3,13.2,38,0.00,,,0.00,WSDL version 426,2013-02-28 23:05:00,
2013-02-28 17:10:00,48.0,23.6,29.44,NNW,341,6.3,13.2,38,0.00,,,0.00,WSDL version 426,2013-02-28 23:10:00,
2013-02-28 17:15:00,48.9,24.5,29.44,North,360,5.3,10.7,38,0.00,,,0.00,WSDL version 426,2013-02-28 23:15:00,
2013-02-28 17:20:00,48.6,24.2,29.44,North,11,5.3,9.8,38,-99.99,,,-99.99,WSDL version 426,2013-02-28 23:20:00,
2013-02-28 17:25:00,47.7,23.5,29.44,NNE,23,6.6,11.9,39,-99.99,,,-99.99,WSDL version 426,2013-02-28 23:25:00,
2013-02-28 17:30:00,46.5,22.9,29.44,NNW,346,7.4,11.9,39,0.00,,,0.00,WSDL version 426,2013-02-28 23:30:00,
2013-02-28 17:35:00,46.3,23.0,29.44,North,358,7.1,10.7,40,-99.99,,,-99.99,WSDL version 426,2013-02-28 23:35:00,
2013-02-28 17:40:00,45.1,22.2,29.44,North,358,7.3,10.7,40,-99.99,,,-99.99,WSDL version 426,2013-02-28 23:40:00,
2013-02-28 17:45:00,44.2,22.1,29.44,North,357,6.5,10.3,42,-99.99,,,-99.99,WSDL version 426,2013-02-28 23:45:00,
2013-02-28 17:50:00,43.7,22.2,29.44,North,8,4.9,10.1,42,0.00,,,0.00,WSDL version 426,2013-02-28 23:50:00,
2013-02-28 17:55:00,44.3,22.7,29.44,North,354,6.9,10.3,42,0.00,,,0.00,WSDL version 426,2013-02-28 23:55:00,
2013-02-28 18:00:00,44.0,23.0,29.44,North,3,5.4,10.3,43,0.00,,,0.00,WSDL version 426,2013-03-01 00:00:00,
2013-02-28 18:05:00,43.1,22.1,29.44,North,6,6.2,11.9,43,0.00,,,0.00,WSDL version 426,2013-03-01 00:05:00,
2013-02-28 18:10:00,42.4,22.3,29.44,North,355,6.7,11.9,45,0.00,,,0.00,WSDL version 426,2013-03-01 00:10:00,
2013-02-28 18:15:00,42.0,22.6,29.44,North,355,5.7,11.9,46,0.00,,,0.00,WSDL version 426,2013-03-01 00:15:00,
2013-02-28 18:20:00,41.6,23.1,29.44,North,357,7.2,10.1,48,0.00,,,0.00,WSDL version 426,2013-03-01 00:20:00,
2013-02-28 18:25:00,41.4,23.1,29.44,North,349,4.7,10.1,48,0.00,,,0.00,WSDL version 426,2013-03-01 00:25:00,
2013-02-28 18:30:00,41.1,22.9,29.47,North,352,4.8,8.1,48,0.00,,,0.00,WSDL version 426,2013-03-01 00:30:00,
2013-02-28 18:35:00,41.0,22.9,29.47,North,353,4.6,8.1,49,0.00,,,0.00,WSDL version 426,2013-03-01 00:35:00,
2013-02-28 18:40:00,40.7,23.0,29.47,North,349,5.2,7.8,49,0.00,,,0.00,WSDL version 426,2013-03-01 00:40:00,
2013-02-28 18:45:00,40.5,22.9,29.47,North,358,4.7,7.8,49,0.00,,,0.00,WSDL version 426,2013-03-01 00:45:00,
2013-02-28 18:50:00,40.4,23.2,29.47,North,349,5.9,7.8,50,0.00,,,0.00,WSDL version 426,2013-03-01 00:50:00,
2013-02-28 18:55:00,40.3,23.1,29.47,North,357,5.6,8.1,50,0.00,,,0.00,WSDL version 426,2013-03-01 00:55:00,
2013-02-28 19:00:00,40.2,23.1,29.47,North,3,5.3,8.1,50,0.00,,,0.00,WSDL version 426,2013-03-01 01:00:00,
2013-02-28 19:05:00,40.1,23.0,29.47,NNW,343,6.5,8.1,50,0.00,,,0.00,WSDL version 426,2013-03-01 01:05:00,
2013-02-28 19:10:00,39.9,22.8,29.47,NNW,348,7.2,8.9,50,0.00,,,0.00,WSDL version 426,2013-03-01 01:10:00,
2013-02-28 19:15:00,39.9,22.8,29.47,North,357,4.8,8.9,50,0.00,,,0.00,WSDL version 426,2013-03-01 01:15:00,
2013-02-28 19:20:00,39.8,22.7,29.47,North,3,5.6,9.2,50,0.00,,,0.00,WSDL version 426,2013-03-01 01:20:00,
2013-02-28 19:25:00,39.7,22.6,29.47,North,360,5.9,9.6,50,0.00,,,0.00,WSDL version 426,2013-03-01 01:25:00,
2013-02-28 19:30:00,39.6,22.5,29.47,NNW,348,4.9,9.6,50,0.00,,,0.00,WSDL version 426,2013-03-01 01:30:00,
2013-02-28 19:35:00,39.7,22.6,29.47,NNW,346,4.0,7.2,50,0.00,,,0.00,WSDL version 426,2013-03-01 01:35:00,
2013-02-28 19:40:00,39.6,22.5,29.47,North,353,6.0,8.1,50,0.00,,,0.00,WSDL version 426,2013-03-01 01:40:00,
2013-02-28 19:45:00,39.6,22.5,29.47,NNW,345,4.4,8.1,50,0.00,,,0.00,WSDL version 426,2013-03-01 01:45:00,
2013-02-28 19:50:00,39.6,22.8,29.47,NNW,338,4.5,7.6,51,0.00,,,0.00,WSDL version 426,2013-03-01 01:50:00,
2013-02-28 19:55:00,39.6,22.9,29.47,NNW,343,6.9,9.8,51,0.00,,,0.00,WSDL version 426,2013-03-01 01:55:00,
2013-02-28 20:00:00,39.6,22.9,29.47,NNW,335,5.8,9.8,51,0.00,,,0.00,WSDL version 426,2013-03-01 02:00:00,
2013-02-28 20:05:00,39.6,22.9,29.47,NNW,346,6.2,8.7,51,0.00,,,0.00,WSDL version 426,2013-03-01 02:05:00,
2013-02-28 20:10:00,39.6,22.5,29.47,NNW,338,7.8,10.7,50,0.00,,,0.00,WSDL version 426,2013-03-01 02:10:00,
2013-02-28 20:15:00,39.5,22.4,29.47,NNW,332,6.1,10.7,50,0.00,,,0.00,WSDL version 426,2013-03-01 02:15:00,
2013-02-28 20:20:00,39.4,22.5,29.47,NNW,343,5.2,8.7,51,0.00,,,0.00,WSDL version 426,2013-03-01 02:20:00,
2013-02-28 20:25:00,39.4,22.8,29.47,NNW,346,5.2,8.5,51,0.00,,,0.00,WSDL version 426,2013-03-01 02:25:00,
2013-02-28 20:30:00,39.4,22.8,29.47,NNW,348,5.6,7.8,51,0.00,,,0.00,WSDL version 426,2013-03-01 02:30:00,
2013-02-28 20:35:00,39.4,22.7,29.47,NNW,332,5.6,10.5,51,0.00,,,0.00,WSDL version 426,2013-03-01 02:35:00,
2013-02-28 20:40:00,39.2,22.3,29.47,NNW,338,6.3,10.5,51,0.00,,,0.00,WSDL version 426,2013-03-01 02:40:00,
2013-02-28 20:45:00,39.2,22.2,29.47,NNW,330,7.0,9.4,50,0.00,,,0.00,WSDL version 426,2013-03-01 02:45:00,
2013-02-28 20:51:00,39.2,22.1,29.47,NNW,330,8.2,13.0,50,0.00,,,0.00,WSDL version 426,2013-03-01 02:51:00,
2013-02-28 20:56:00,39.0,22.2,29.47,NW,325,9.0,13.0,50,0.00,,,0.00,WSDL version 426,2013-03-01 02:56:00,
2013-02-28 21:01:00,39.0,22.3,29.47,NNW,335,8.7,12.8,51,0.00,,,0.00,WSDL version 426,2013-03-01 03:01:00,
2013-02-28 21:06:00,38.8,22.3,29.47,NNW,335,8.2,12.5,51,0.00,,,0.00,WSDL version 426,2013-03-01 03:06:00,
2013-02-28 21:11:00,38.8,22.3,29.47,NNW,338,6.1,12.5,51,0.00,,,0.00,WSDL version 426,2013-03-01 03:11:00,
2013-02-28 21:16:00,38.7,22.1,29.47,NNW,338,5.6,8.7,51,0.00,,,0.00,WSDL version 426,2013-03-01 03:16:00,
2013-02-28 21:21:00,38.7,22.5,29.47,NNW,338,4.7,8.7,52,0.00,,,0.00,WSDL version 426,2013-03-01 03:21:00,
2013-02-28 21:26:00,38.7,22.6,29.47,NNW,338,5.4,10.7,52,0.00,,,0.00,WSDL version 426,2013-03-01 03:26:00,
2013-02-28 21:32:00,38.7,22.6,29.47,NNW,333,7.1,11.0,52,0.00,,,0.00,WSDL version 426,2013-03-01 03:32:00,
2013-02-28 21:37:00,38.7,22.4,29.47,North,350,6.1,9.8,52,0.00,,,0.00,WSDL version 426,2013-03-01 03:37:00,
2013-02-28 21:42:00,38.5,22.4,29.47,NNW,334,4.5,9.8,52,0.00,,,0.00,WSDL version 426,2013-03-01 03:42:00,
2013-02-28 21:47:00,38.5,22.2,29.47,NNW,330,7.4,9.6,51,0.00,,,0.00,WSDL version 426,2013-03-01 03:47:00,
2013-02-28 21:52:00,38.5,21.9,29.47,NNW,332,7.3,11.2,51,0.00,,,0.00,WSDL version 426,2013-03-01 03:52:00,
2013-02-28 21:57:00,38.3,21.9,29.47,NNW,340,6.2,11.2,52,0.00,,,0.00,WSDL version 426,2013-03-01 03:57:00,
2013-02-28 22:02:00,38.3,22.2,29.47,NNW,338,7.0,8.5,52,0.00,,,0.00,WSDL version 426,2013-03-01 04:02:00,
2013-02-28 22:07:00,38.3,22.2,29.47,NNW,344,6.7,8.7,52,0.00,,,0.00,WSDL version 426,2013-03-01 04:07:00,
2013-02-28 22:12:00,38.1,22.1,29.47,NNW,343,5.9,8.7,52,0.00,,,0.00,WSDL version 426,2013-03-01 04:12:00,
2013-02-28 22:17:00,38.1,22.1,29.47,NNW,340,4.8,8.7,53,0.00,,,0.00,WSDL version 426,2013-03-01 04:17:00,
2013-02-28 22:23:00,38.1,22.4,29.47,NNW,340,5.3,8.5,53,0.00,,,0.00,WSDL version 426,2013-03-01 04:23:00,
2013-02-28 22:28:00,38.1,22.1,29.47,NNW,343,4.6,8.1,52,0.00,,,0.00,WSDL version 426,2013-03-01 04:28:00,
2013-02-28 22:33:00,38.1,22.3,29.47,NNW,332,6.7,8.7,52,0.00,,,0.00,WSDL version 426,2013-03-01 04:33:00,
2013-02-28 22:39:00,38.1,22.2,29.47,NNW,343,5.8,8.7,53,0.00,,,0.00,WSDL version 426,2013-03-01 04:39:00,
2013-02-28 22:44:00,37.9,22.1,29.47,NW,326,8.1,10.5,52,0.00,,,0.00,WSDL version 426,2013-03-01 04:44:00,
2013-02-28 22:49:00,37.9,22.0,29.47,NNW,338,6.6,10.5,53,0.00,,,0.00,WSDL version 426,2013-03-01 04:49:00,
2013-02-28 22:55:00,37.9,22.3,29.47,North,355,6.7,10.3,53,0.00,,,0.00,WSDL version 426,2013-03-01 04:55:00,
2013-02-28 23:00:00,37.8,22.2,29.47,NW,326,6.2,10.3,53,0.00,,,0.00,WSDL version 426,2013-03-01 05:00:00,
2013-02-28 23:01:00,37.8,22.2,29.47,NNW,333,6.2,10.3,53,0.00,,,0.00,WSDL version 426,2013-03-01 05:01:00,
2013-02-28 23:06:00,37.6,22.1,29.47,NNW,338,7.3,10.7,53,0.00,,,0.00,WSDL version 426,2013-03-01 05:06:00,
2013-02-28 23:11:00,37.6,21.8,29.47,NNW,338,6.9,10.7,53,0.00,,,0.00,WSDL version 426,2013-03-01 05:11:00,
2013-02-28 23:17:00,37.4,21.8,29.47,NNW,346,6.3,9.6,53,0.00,,,0.00,WSDL version 426,2013-03-01 05:17:00,
2013-02-28 23:22:00,37.4,21.8,29.47,NW,326,7.9,10.5,53,0.00,,,0.00,WSDL version 426,2013-03-01 05:22:00,
2013-02-28 23:27:00,37.3,21.7,29.47,NNW,335,9.4,11.0,53,0.00,,,0.00,WSDL version 426,2013-03-01 05:27:00,
2013-02-28 23:32:00,37.2,21.7,29.47,NNW,343,7.4,11.0,53,0.00,,,0.00,WSDL version 426,2013-03-01 05:32:00,
2013-02-28 23:37:00,37.0,21.5,29.47,NNW,343,7.9,11.0,53,0.00,,,0.00,WSDL version 426,2013-03-01 05:37:00,
2013-02-28 23:42:00,37.0,21.4,29.47,NNW,340,7.5,10.7,53,0.00,,,0.00,WSDL version 426,2013-03-01 05:42:00,
2013-02-28 23:47:00,36.9,21.3,29.47,NNW,343,7.5,10.7,53,0.00,,,0.00,WSDL version 426,2013-03-01 05:47:00,
2013-02-28 23:52:00,36.8,21.3,29.47,North,349,7.5,11.0,53,0.00,,,0.00,WSDL version 426,2013-03-01 05:52:00,
2013-02-28 23:57:00,36.7,20.9,29.47,North,355,7.6,11.0,52,0.00,,,0.00,WSDL version 426,2013-03-01 05:57:00,